Probability
23 32 35 32 32 32 32 29 29 26 23 19 19 16 16 16 6 6 10 6 6 3 6 6 3 0 6 6 3 0 0 0 0 0 0 0 0 0 0 0 0 0 0
23 32 35 32 35 32 32 32 29 23 23 19 16 16 16 13 13 6 10 10 6 10 10 3 3 3 3 3 3 3 3 3 0 0 0 0 0 0 0 0 0 0 0
23 32 35 35 29 29 29 32 29 26 23 19 13 13 16 13 13 13 10 10 10 13 10 3 3 3 3 3 0 3 3 3 3 0 0 0 0 0 0 0 0 0 0
19 26 29 26 32 26 23 23 26 26 26 23 19 19 19 16 13 10 13 10 10 13 10 10 3 3 3 3 0 3 3 3 3 3 0 0 0 0 0 0 0 0 0
16 16 26 26 29 29 23 23 23 26 19 16 16 13 13 10 10 6 10 6 6 3 10 6 6 3 3 3 3 3 3 3 3 3 3 0 0 0 0 0 0 0 0
16 19 16 16 29 29 29 26 29 19 19 19 16 10 10 10 10 13 13 10 3 3 3 3 6 3 3 3 3 3 3 3 3 3 3 3 0 0 0 0 0 0 0
13 16 19 19 32 26 29 29 19 16 13 13 16 10 10 10 13 13 13 10 3 3 3 3 3 6 3 3 3 3 3 3 3 3 3 3 3 0 0 0 0 0 0
13 19 19 19 23 26 23 19 19 13 13 6 10 10 6 6 10 13 13 13 6 3 3 3 3 3 6 3 3 3 3 3 3 3 3 3 3 3 3 0 0 0 0
19 16 16 13 26 26 19 19 16 16 10 6 0 3 3 6 6 6 6 3 6 6 3 3 3 3 3 3 3 3 3 3 3 3 3 3 3 3 0 0 0 0 0
19 16 10 13 19 23 19 16 13 10 6 6 3 3 3 3 0 0 0 3 3 3 3 6 3 3 3 3 3 3 3 3 3 3 3 3 3 3 3 3 3 0 0
19 16 13 13 16 23 23 16 10 10 6 6 6 3 3 0 0 0 0 0 3 3 3 3 3 10 6 3 0 3 3 3 0 3 3 3 3 0 0 0 0 3 0
10 13 13 13 19 23 23 19 10 10 6 6 6 0 0 0 0 0 0 0 0 0 3 3 3 6 6 3 0 6 3 3 3 0 0 0 0 0 0 0 0 0 3
6 10 10 16 16 23 19 23 16 10 6 3 3 3 0 0 0 0 0 0 0 0 0 3 3 3 3 3 3 3 3 3 3 0 0 0 0 0 0 0 0 0 0
6 10 10 6 16 13 13 16 13 6 6 3 3 3 3 0 0 0 0 0 0 0 0 0 0 0 0 3 3 6 6 3 3 3 0 0 0 0 0 0 0 0 0
10 19 19 13 10 10 10 6 6 6 10 6 6 3 6 3 0 0 0 0 0 3 0 0 0 3 3 3 3 3 6 6 3 3 0 0 0 0 0 0 0 0 0
10 13 16 16 10 13 13 10 6 3 3 3 3 3 3 6 3 0 0 3 3 3 3 3 3 3 3 3 0 0 3 3 3 3 3 0 0 0 0 0 0 0 0
6 13 13 16 13 10 6 6 3 3 3 3 3 3 3 6 6 3 3 3 3 3 3 3 3 3 3 3 0 0 0 3 3 3 3 0 0 0 0 0 0 0 0
16 16 13 16 10 10 6 3 3 3 3 3 3 3 3 3 6 6 3 0 3 3 3 3 3 3 3 3 0 0 0 0 3 3 0 0 0 0 0 0 0 0 0
6 10 13 6 6 6 3 3 3 3 3 3 3 3 3 3 6 6 6 3 0 3 3 3 3 3 3 0 0 0 0 0 0 0 0 0 0 0 0 0 0 0 0
10 6 10 10 6 3 3 3 3 3 3 3 3 3 3 3 3 3 3 3 0 0 3 3 3 3 3 0 0 0 0 0 0 0 0 0 0 0 0 0 0 0 0
6 6 10 13 6 3 3 3 3 3 3 3 3 3 3 3 3 3 3 3 0 0 0 0 0 0 0 0 0 0 0 0 0 0 0 0 0 0 0 0 0 0 0
10 13 10 10 6 3 3 3 3 3 3 3 3 3 3 3 3 3 3 3 3 0 0 0 0 0 0 0 0 0 0 0 0 0 0 0 0 0 0 0 0 0 0
3 6 6 3 0 6 3 3 3 3 3 3 3 3 3 3 3 3 3 3 3 3 0 0 0 0 0 0 0 0 0 0 0 0 0 0 0 0 0 0 0 0 0
3 3 6 0 0 3 3 3 3 3 3 3 3 3 3 3 3 3 3 3 3 3 0 0 0 0 0 0 0 0 0 0 0 0 0 0 0 0 0 0 0 0 0
3 3 6 3 3 3 3 3 3 3 3 3 3 3 3 3 3 3 3 3 3 0 0 0 0 0 0 0 0 0 0 0 0 0 0 0 0 0 0 0 0 0 0
6 3 3 3 0 3 3 6 3 3 3 3 3 3 3 3 3 0 0 0 0 0 0 0 0 0 0 0 0 0 0 0 0 0 0 0 0 0 0 0 0 0 0
Height
5853 5853 5853 5853 5852 5852 5851 5851 5851 5851 5850 5849 5849 5849 5849 5848 5848 5848 5848 5848 5847 5847 5846 5845 5845 5844 5844 5844 5844 5844 5843 5843 5843 5843 5843 5843 5843 5843 5842 5842 5842 5842 5842
5849 5849 5849 5849 5849 5848 5848 5848 5848 5847 5847 5846 5846 5846 5845 5845 5845 5845 5844 5844 5843 5843 5842 5842 5841 5840 5840 5840 5840 5840 5840 5840 5840 5840 5839 5839 5839 5839 5838 5838 5838 5838 5838
5844 5844 5844 5844 5844 5844 5844 5844 5844 5843 5843 5843 5842 5842 5842 5841 5841 5841 5841 5840 5840 5839 5838 5838 5837 5836 5836 5836 5836 5836 5836 5836 5836 5835 5835 5835 5835 5834 5834 5834 5834 5834 5833
5839 5839 5840 5840 5840 5840 5840 5840 5840 5839 5839 5839 5838 5838 5838 5838 5838 5837 5837 5837 5836 5835 5834 5833 5833 5833 5832 5832 5832 5832 5832 5832 5831 5831 5831 5831 5830 5830 5829 5829 5829 5829 5829
5835 5835 5836 5836 5836 5836 5836 5836 5836 5835 5835 5835 5835 5834 5834 5834 5834 5833 5833 5832 5832 5831 5830 5830 5829 5828 5828 5828 5828 5827 5828 5827 5827 5827 5826 5826 5825 5825 5825 5825 5824 5824 5824
5830 5830 5831 5831 5831 5830 5830 5831 5831 5831 5831 5830 5830 5830 5830 5830 5830 5829 5829 5828 5827 5827 5827 5826 5825 5824 5824 5824 5823 5823 5823 5823 5822 5822 5821 5821 5820 5820 5819 5819 5819 5819 5819
5823 5825 5826 5826 5826 5825 5825 5825 5826 5826 5826 5825 5825 5825 5825 5825 5825 5825 5825 5824 5823 5823 5822 5822 5821 5820 5820 5819 5819 5818 5818 5818 5817 5817 5816 5815 5815 5814 5814 5814 5814 5813 5813
5818 5819 5820 5821 5821 5821 5820 5820 5821 5821 5821 5820 5819 5820 5821 5821 5820 5820 5819 5819 5818 5818 5818 5817 5816 5816 5815 5815 5814 5813 5813 5812 5812 5811 5810 5810 5809 5808 5808 5808 5808 5808 5808
5813 5814 5815 5816 5816 5816 5816 5815 5815 5816 5816 5815 5814 5815 5815 5815 5815 5815 5814 5814 5813 5813 5813 5812 5812 5811 5811 5810 5809 5809 5808 5808 5807 5806 5805 5804 5803 5803 5802 5802 5803 5803 5803
5808 5809 5810 5810 5810 5810 5810 5810 5809 5810 5810 5810 5810 5810 5810 5810 5810 5809 5809 5808 5808 5808 5808 5807 5807 5806 5806 5805 5804 5804 5803 5802 5801 5800 5800 5799 5798 5797 5797 5797 5797 5797 5797
5804 5805 5805 5805 5805 5804 5804 5804 5804 5804 5804 5805 5805 5805 5805 5804 5804 5804 5803 5803 5803 5803 5802 5802 5802 5801 5801 5800 5799 5798 5798 5797 5796 5795 5794 5794 5793 5792 5792 5791 5791 5791 5792
5798 5799 5799 5799 5799 5798 5798 5798 5799 5798 5798 5799 5799 5799 5799 5799 5798 5798 5798 5798 5797 5797 5797 5796 5796 5796 5795 5794 5793 5792 5792 5791 5790 5789 5789 5788 5788 5787 5787 5786 5786 5786 5786
5792 5793 5793 5793 5793 5793 5793 5793 5793 5792 5792 5792 5793 5793 5792 5792 5792 5792 5792 5792 5791 5791 5791 5790 5790 5790 5789 5788 5787 5786 5785 5784 5784 5784 5783 5783 5783 5782 5782 5781 5780 5780 5780
5786 5786 5787 5787 5787 5787 5787 5787 5787 5787 5787 5787 5786 5786 5786 5786 5786 5786 5786 5786 5785 5785 5785 5784 5784 5783 5783 5782 5781 5780 5779 5779 5778 5778 5778 5777 5777 5777 5776 5776 5775 5775 5775
5780 5780 5781 5781 5781 5781 5781 5781 5781 5780 5780 5780 5780 5780 5780 5779 5779 5779 5779 5779 5779 5779 5778 5778 5778 5777 5776 5775 5774 5774 5773 5772 5772 5772 5772 5771 5771 5771 5771 5770 5769 5769 5769
5775 5775 5775 5775 5775 5775 5775 5775 5775 5775 5774 5774 5774 5773 5773 5773 5773 5773 5773 5773 5773 5772 5772 5772 5771 5771 5770 5769 5768 5767 5767 5766 5766 5766 5766 5765 5765 5765 5764 5764 5763 5763 5763
5769 5770 5769 5769 5769 5769 5769 5769 5769 5769 5768 5768 5768 5767 5767 5767 5767 5767 5767 5767 5767 5766 5765 5765 5765 5764 5763 5763 5762 5761 5761 5761 5760 5760 5760 5759 5759 5758 5758 5757 5757 5756 5756
5763 5763 5763 5763 5763 5763 5763 5763 5762 5763 5763 5763 5762 5762 5762 5762 5762 5762 5761 5761 5760 5760 5759 5759 5758 5758 5757 5756 5756 5755 5755 5755 5754 5754 5754 5753 5752 5751 5751 5750 5750 5750 5749
5757 5757 5758 5757 5757 5756 5756 5757 5757 5757 5757 5757 5757 5757 5756 5756 5756 5756 5755 5755 5754 5753 5753 5752 5752 5751 5751 5750 5750 5749 5749 5748 5748 5748 5747 5746 5746 5745 5744 5744 5743 5743 5743
5750 5751 5751 5751 5751 5751 5751 5751 5750 5750 5751 5751 5751 5751 5750 5750 5750 5749 5749 5748 5748 5747 5746 5746 5745 5745 5744 5744 5743 5743 5742 5742 5741 5741 5740 5740 5739 5738 5737 5737 5737 5737 5737
5743 5745 5745 5745 5745 5745 5745 5745 5745 5745 5745 5745 5745 5745 5745 5744 5744 5743 5743 5742 5741 5741 5740 5739 5738 5738 5738 5737 5736 5736 5735 5735 5734 5734 5733 5733 5732 5731 5730 5730 5730 5730 5730
5737 5738 5738 5739 5739 5740 5739 5739 5740 5740 5739 5739 5739 5739 5739 5738 5738 5737 5737 5736 5735 5734 5733 5733 5732 5731 5731 5730 5730 5729 5729 5728 5728 5727 5727 5726 5725 5725 5724 5723 5723 5722 5722
5730 5731 5732 5733 5733 5734 5734 5734 5734 5733 5733 5733 5734 5734 5733 5732 5732 5731 5731 5730 5729 5728 5727 5727 5726 5725 5724 5724 5723 5722 5722 5721 5721 5721 5720 5719 5719 5718 5717 5716 5715 5715 5714
5724 5725 5726 5726 5727 5727 5727 5728 5728 5728 5728 5728 5728 5728 5727 5727 5726 5726 5725 5724 5723 5723 5722 5721 5720 5719 5718 5717 5716 5715 5715 5714 5714 5713 5713 5712 5712 5711 5710 5709 5708 5707 5707
5717 5718 5719 5720 5720 5721 5722 5722 5722 5722 5722 5722 5722 5722 5722 5721 5721 5720 5720 5719 5718 5717 5716 5715 5714 5713 5712 5711 5710 5709 5709 5708 5707 5706 5706 5705 5705 5704 5703 5702 5701 5700 5700
5710 5712 5713 5713 5714 5715 5716 5716 5716 5716 5716 5716 5716 5716 5716 5716 5715 5715 5714 5713 5713 5712 5710 5709 5708 5706 5706 5705 5704 5703 5702 5701 5700 5700 5699 5698 5698 5697 5696 5695 5694 5694 5693
Wind_Speed
16 14 14 14 14 14 14 12 11 11 11 11 11 11 11 11 11 11 10 11 12 12 12 13 13 13 13 13 13 13 13 13 13 13 13 13 14 14 15 15 15 15 15
17 16 14 14 14 13 12 12 12 12 12 12 12 11 12 12 12 12 12 12 12 12 13 12 12 12 13 13 14 14 14 14 14 14 15 15 16 16 15 15 15 15 15
18 17 16 14 15 14 12 12 12 12 13 13 12 12 12 13 12 12 12 12 13 13 13 13 13 12 13 14 15 15 15 15 15 15 16 16 17 17 16 16 16 15 16
18 18 17 16 16 16 14 13 13 13 13 14 14 13 13 13 13 12 12 12 13 13 13 13 12 13 14 15 16 15 15 15 15 15 15 16 16 17 17 17 17 17 17
18 18 18 18 17 17 16 15 14 14 14 14 14 14 14 14 14 13 13 13 14 13 13 13 13 13 14 15 15 15 15 16 16 16 16 17 16 17 17 17 17 18 18
19 18 18 18 18 18 18 17 17 16 15 15 14 14 14 15 15 14 14 15 15 15 14 15 15 14 14 15 15 16 16 16 16 17 17 17 17 17 18 18 18 19 19
20 19 18 19 19 19 18 18 18 17 17 15 15 14 15 15 16 16 16 16 16 16 15 15 15 15 15 15 16 16 17 17 17 18 18 18 18 18 19 19 18 19 19
19 18 19 19 19 19 19 18 19 18 18 18 17 16 16 16 17 17 17 16 16 16 16 16 16 16 16 16 16 16 17 17 17 18 18 18 18 18 19 19 18 18 18
18 18 18 18 19 19 20 20 19 20 19 20 18 18 17 18 18 18 17 17 17 17 18 18 18 17 17 17 17 16 17 17 17 18 18 18 17 17 18 18 18 18 18
19 19 20 20 20 21 21 21 19 18 19 19 19 19 18 19 19 19 18 18 18 18 18 18 18 18 18 18 18 17 18 18 18 19 19 18 17 16 17 17 18 18 18
18 19 20 21 21 20 19 20 20 19 18 18 19 20 20 20 20 19 19 18 18 19 19 19 19 18 18 19 18 18 18 19 19 19 19 18 18 18 17 17 18 18 18
18 18 19 20 20 20 20 20 20 20 18 18 19 20 20 19 19 19 19 19 18 19 19 20 20 19 19 19 19 19 19 19 18 18 18 18 18 18 18 18 18 19 19
18 18 19 19 19 20 21 20 20 19 19 20 20 20 21 20 19 19 19 19 19 19 19 19 20 19 20 20 20 20 19 19 18 18 18 18 18 18 18 19 19 19 19
18 17 18 19 19 21 22 21 21 20 20 20 21 21 21 20 19 19 19 19 19 18 19 20 20 20 20 20 20 19 19 19 18 18 18 18 19 19 19 19 19 19 19
19 18 18 19 19 19 20 21 22 21 21 22 22 21 21 20 20 20 20 20 20 19 19 20 20 20 21 20 20 19 19 18 18 18 18 19 19 19 19 20 20 20 20
19 20 20 19 20 20 20 21 21 21 21 21 21 21 20 19 19 19 18 18 19 19 20 20 20 20 20 19 19 19 19 19 19 18 18 19 20 21 20 20 20 20 20
21 21 21 21 21 20 21 21 21 21 20 19 19 19 19 19 19 18 18 18 18 18 19 19 19 19 19 19 19 19 18 18 18 18 19 19 20 20 21 21 21 21 20
21 21 21 20 21 21 21 20 20 20 19 19 19 18 18 18 18 18 19 19 19 18 18 19 19 19 19 20 20 19 19 19 19 20 20 21 21 21 22 22 21 21 20
21 21 21 20 19 18 18 18 19 19 18 18 18 18 18 18 18 19 19 19 19 19 19 19 20 20 20 20 20 21 21 20 20 21 22 22 21 21 22 22 21 21 21
20 19 19 18 18 17 17 17 18 17 17 17 17 17 17 18 18 18 19 19 19 19 19 19 20 20 20 20 20 21 20 20 20 21 22 22 21 21 21 21 21 22 22
20 20 19 18 17 17 17 17 17 17 17 17 17 17 17 17 17 17 17 18 19 19 19 19 19 19 19 20 20 20 21 20 20 21 21 21 22 21 21 21 22 23 24
21 20 19 18 17 17 17 17 17 17 17 18 18 18 17 18 17 17 16 17 17 18 18 18 18 18 19 19 19 20 20 21 21 21 21 20 21 21 22 22 22 23 24
21 19 18 18 17 17 16 17 17 17 17 18 18 18 18 17 17 16 16 17 17 17 18 18 18 18 18 19 19 20 20 20 20 21 21 21 21 21 22 22 22 23 23
21 20 20 19 18 17 16 16 16 16 17 17 17 17 17 17 17 16 16 16 16 16 17 18 18 19 19 18 18 19 19 19 19 20 21 21 21 22 21 22 23 23 23
21 20 20 20 19 17 16 15 15 16 16 16 17 17 16 16 16 15 15 16 16 17 17 17 18 18 19 18 19 19 19 19 19 20 21 22 22 22 21 21 21 21 22
21 21 20 20 19 18 17 17 16 16 17 17 17 17 17 16 16 15 15 16 17 17 17 17 17 17 18 18 18 19 19 19 20 20 21 21 21 21 20 20 20 20 21
Wind_Direction
276 276 276 277 281 282 280 278 279 279 275 278 283 281 281 281 282 282 283 282 282 281 281 276 274 275 274 273 272 270 270 270 273 273 272 271 269 267 266 265 265 264 263
272 272 274 275 276 277 275 273 277 276 276 276 281 280 277 277 278 277 279 280 279 282 281 280 276 278 278 273 271 273 270 269 272 273 270 270 272 272 269 266 264 265 264
271 271 272 275 271 271 273 272 274 274 272 275 280 279 277 276 274 274 277 281 282 281 278 278 277 279 280 276 271 270 268 270 271 270 269 270 272 268 265 264 263 264 263
268 269 270 271 272 269 270 272 273 272 270 272 274 276 277 276 274 273 275 279 283 281 276 280 279 279 278 275 269 268 269 271 269 269 270 272 272 268 263 263 263 263 262
264 265 268 267 270 268 266 268 269 269 270 271 272 273 276 275 273 271 274 277 278 280 279 279 279 278 276 275 269 269 270 270 270 270 271 272 273 266 262 263 264 264 262
260 259 263 265 265 266 267 267 266 266 270 272 271 271 274 274 272 271 273 277 277 275 277 277 279 276 274 274 272 270 270 270 271 272 273 272 270 267 266 264 263 263 262
261 258 260 265 263 267 271 269 268 266 268 272 271 270 273 273 272 272 275 278 277 274 274 275 276 273 271 272 272 271 272 273 271 272 274 273 271 269 268 265 263 263 261
264 256 256 261 261 265 270 269 270 269 270 272 274 270 273 275 275 275 275 276 275 273 274 274 274 273 272 271 272 272 273 272 271 271 272 272 271 270 269 265 264 263 260
261 258 259 261 262 264 265 266 269 269 271 272 271 269 272 273 276 278 276 274 271 271 272 272 271 272 276 277 276 277 274 273 273 272 271 270 269 268 267 264 263 262 260
261 263 267 267 272 272 268 267 271 271 273 271 270 269 270 273 274 277 277 273 269 271 273 273 274 275 277 280 279 277 275 276 276 272 269 267 268 269 267 263 261 261 262
261 264 265 268 270 270 273 276 277 274 272 271 270 271 271 273 273 273 274 272 269 268 271 272 274 274 275 279 280 277 275 276 273 271 269 269 270 270 270 267 266 264 263
262 263 266 268 267 268 272 274 275 272 273 274 275 276 273 271 272 274 273 272 271 271 271 273 274 274 275 277 280 279 276 272 272 271 270 270 272 272 272 268 270 268 265
264 264 269 271 270 268 270 273 271 274 276 276 278 278 276 273 272 272 272 272 271 272 273 272 274 274 274 276 278 278 277 274 274 273 271 271 270 270 271 273 273 268 265
263 268 271 270 273 271 269 269 271 274 275 275 275 275 275 273 270 270 271 270 271 272 272 271 271 273 274 276 276 276 276 274 275 274 271 270 269 269 270 273 274 270 265
264 268 272 273 273 272 269 270 270 273 274 275 275 272 271 270 269 269 269 271 272 272 270 270 270 272 273 274 273 273 273 273 273 272 272 272 271 269 271 273 275 274 268
258 264 269 270 269 269 268 270 272 273 272 271 272 271 270 269 269 270 271 272 273 272 269 270 271 271 273 273 272 272 271 271 271 272 273 273 272 270 271 273 273 273 270
261 264 269 271 270 269 269 268 271 272 270 269 270 272 271 271 270 269 271 272 273 273 272 270 271 271 270 271 271 271 271 269 270 271 272 273 274 273 272 273 272 271 269
264 268 270 271 270 271 268 266 268 269 268 268 268 270 271 271 273 272 273 274 274 274 272 269 271 273 271 270 269 269 271 271 271 271 272 275 276 275 274 272 271 270 267
266 266 268 272 272 271 270 270 269 270 267 268 270 269 269 271 273 273 272 273 273 274 275 272 271 272 272 271 270 270 272 272 273 273 275 276 276 274 272 271 269 269 268
263 265 268 270 271 272 271 270 271 269 268 268 270 271 272 271 273 274 273 272 273 274 276 275 272 271 271 270 271 272 272 272 274 276 276 275 274 274 272 269 268 269 269
260 263 265 268 269 270 269 269 269 266 265 267 268 269 272 273 274 274 272 272 272 273 275 274 273 271 271 270 271 271 271 273 274 275 276 275 274 273 272 270 271 271 270
259 261 265 267 266 266 267 268 267 266 265 266 267 269 272 275 275 275 272 272 272 273 275 277 276 273 272 273 273 272 271 272 275 276 276 275 274 271 272 274 275 272 270
261 260 262 264 264 265 266 268 268 267 266 266 266 268 271 274 274 275 269 271 274 274 275 277 276 275 275 273 274 273 271 273 275 276 277 277 277 275 274 274 274 272 271
258 259 261 261 262 264 264 268 267 266 265 266 267 269 272 273 273 274 272 272 275 276 276 275 276 277 281 277 275 275 274 273 276 278 277 277 277 276 276 274 272 272 273
254 256 258 259 261 261 262 263 265 265 265 266 266 265 268 270 270 270 271 274 276 278 279 278 277 278 280 277 274 274 275 276 276 277 277 275 276 278 278 277 275 273 273
252 255 257 256 254 257 261 264 266 267 267 267 266 264 265 268 271 271 272 276 278 281 285 283 281 280 282 281 279 278 277 277 278 277 276 277 277 277 278 278 278 276 277